USA 283

Last updated on Thu Jul 03 2025 00:02:47 GMT+0000 (Coordinated Universal Time)

1 43339U 18036A 25182.53918078 -.00000314 00000+0 00000+0 0 9996 2 43339 0.0327 157.7906 0001088 14.3107 75.9159 1.00272601 3888
UTC large
Height (km)
Speed (km/s)
/
Latitude / Longitude
Inclination (degrees)
Orbital Period (minutes)
Azimuth
Elevation
Range (km)
Doppler Factor

Next 0 passes for location: London (51.5072 / 0.1276)

Sorry there are no passes over London.